Left ArrowRight Arrow

44.8408, -93.29828

Hourly Observations for June 18, 2024

Temp ( °F °C ) Dew Point ( °F °C ) Humidity (%) Winds ( mph kmh ) Pressure ( in mb ) Visibility ( mi km ) Precip ( " mm )
12:02 am 00:02 Mostly Cloudy 65 18.3 63 17.2 93 93 E 13 20 29.73 1007 10 16 0.00 0.00
12:14 am 00:14 Mostly Cloudy 66 18.9 63 17.2 90 90 E 13 20 29.72 1006 10 16 0.00 0.00
12:53 am 00:53 Mostly Clear 66 18.9 64 17.8 93 93 ESE 8 13 29.72 1006 10 16 0.00 0.00
1:53 am 01:53 Mostly Clear 66 18.9 64 17.8 93 93 SE 12 19 29.67 1005 10 16 0.00 0.00
2:53 am 02:53 Clear 67 19.4 65 18.3 93 93 ESE 10 17 29.62 1003 10 16 0.00 0.00
3:53 am 03:53 Clear 69 20.6 65 18.3 87 87 SE 9 15 29.63 1003 10 16 0.00 0.00
4:53 am 04:53 Mostly Clear 70 21.1 67 19.4 90 90 SSE 8 13 29.65 1004 10 16 0.00 0.00
5:53 am 05:53 Partly Cloudy 75 23.9 68 20 79 79 S 15 24 29.62 1003 10 16 0.00 0.00
6:53 am 06:53 Mostly Cloudy 77 25 69 20.6 77 77 S 18 30 29.62 1003 10 16 0.00 0.00
7:53 am 07:53 Mostly Cloudy 79 26.1 69 20.6 72 72 S 15 24 29.65 1004 10 16 0.00 0.00
8:53 am 08:53 Cloudy 79 26.1 70 21.1 74 74 S 15 24 29.66 1005 10 16 0.00 0.00
9:53 am 09:53 Cloudy 81 27.2 70 21.1 69 69 S 15 24 29.66 1004 10 16 0.00 0.00
10:53 am 10:53 Cloudy 80 26.7 70 21.1 71 71 S 16 26 29.66 1004 10 16 0.00 0.00
11:53 am 11:53 Mostly Cloudy 81 27.2 72 22.2 74 74 S 20 31 29.65 1004 10 16 0.00 0.00
12:53 pm 12:53 Cloudy 83 28.3 71 21.7 67 67 S 28 44 29.64 1004 10 16 0.00 0.00
1:53 pm 13:53 Cloudy 83 28.3 71 21.7 67 67 S 18 30 29.65 1004 10 16 0.00 0.00
2:53 pm 14:53 Cloudy 83 28.3 71 21.7 67 67 S 20 31 29.65 1004 10 16 0.00 0.00
3:53 pm 15:53 Mostly Cloudy 84 28.9 72 22.2 67 67 S 21 33 29.65 1004 10 16 0.00 0.00
4:53 pm 16:53 Mostly Cloudy 84 28.9 72 22.2 67 67 S 23 37 29.64 1004 10 16 0.00 0.00
5:53 pm 17:53 Mostly Cloudy 85 29.4 71 21.7 63 63 S 17 28 29.61 1003 10 16 0.00 0.00
6:53 pm 18:53 Mostly Cloudy 85 29.4 71 21.7 63 63 S 15 24 29.62 1003 10 16 0.00 0.00
7:53 pm 19:53 Cloudy 84 28.9 72 22.2 67 67 SSW 15 24 29.64 1004 10 16 0.01 0.13
8:12 pm 20:12 Cloudy with Nearby Thunderstorms 84 28.9 72 22.2 67 67 SSW 14 22 29.61 1003 8 13 0.01 0.13
8:35 pm 20:35 Cloudy with Nearby Thunderstorms 82 27.8 72 22.2 72 72 W 17 28 29.62 1003 8 13 0.01 0.13
8:53 pm 20:53 Cloudy with Strong Thunderstorms 77 25 74 23.3 90 90 SW 14 22 29.65 1004 4 6 0.28 7.11
9:06 pm 21:06 Cloudy with Thunderstorms 77 25 73 22.8 88 88 W 17 28 29.66 1005 4 6 0.05 1.27
9:35 pm 21:35 Cloudy 73 22.8 69 20.6 87 87 W 20 31 29.71 1006 7 11 0.05 1.27
9:53 pm 21:53 Cloudy 72 22.2 67 19.4 84 84 W 20 31 29.76 1008 10 16 0.05 1.27
10:53 pm 22:53 Cloudy with Light Rain 68 20 64 17.8 87 87 W 10 17 29.81 1010 9 14 0.02 0.51
11:53 pm 23:53 Cloudy 66 18.9 63 17.2 90 90 W 14 22 29.85 1011 10 16 0.01 0.13

Powered by Vaisala Xweather